VE1DX Weather Reports


Display with metric or nautical units.
time (UTC)temp
F
wind
direction
speed
MPH
gust
MPH
rain 1hr
in
rain 24hr
in
rain mn
in
humidity
%
barometer
mb
20260509072517 35 0.0 0.0 0.00 0.00 0.00 92 1012.1
20260509072017 35 0.0 0.0 0.00 0.00 0.00 92 1011.9
20260509071517 35 0.0 0.0 0.00 0.00 0.00 92 1011.9
20260509071017 36 0.0 0.0 0.00 0.00 0.00 92 1011.9
20260509070517 36 0.0 0.0 0.00 0.00 0.00 92 1011.7
20260509070017 36 0.0 0.0 0.00 0.00 0.00 92 1011.6
20260509065517 36 0.0 0.0 0.00 0.00 0.00 92 1011.6
20260509065017 36 0.0 0.0 0.00 0.00 0.00 92 1011.5
20260509064517 36 0.0 0.0 0.00 0.00 0.00 92 1011.4
20260509064017 37 0.0 0.0 0.00 0.00 0.00 92 1011.3
20260509063517 37 0.0 0.0 0.00 0.00 0.00 92 1011.2
20260509063017 37 0.0 0.0 0.00 0.00 0.00 92 1011.2
20260509062517 37 0.0 0.0 0.00 0.00 0.00 91 1011.0
20260509062017 37 0.0 0.0 0.00 0.00 0.00 91 1011.0
20260509061517 37 0.0 0.0 0.00 0.00 0.00 92 1010.9
20260509061017 37 0.0 0.0 0.00 0.00 0.00 91 1010.8
20260509060517 37 0.0 0.0 0.00 0.00 0.00 91 1010.8
20260509060017 37 0.0 0.0 0.00 0.00 0.00 91 1010.6
20260509055517 38 0.0 0.0 0.00 0.00 0.00 91 1010.5
20260509055017 38 0.0 0.0 0.00 0.00 0.00 91 1010.5
20260509054517 38 0.0 0.0 0.00 0.00 0.00 90 1010.4
20260509054017 38 0.0 0.0 0.00 0.00 0.00 90 1010.3
20260509053517 38 0.0 0.0 0.00 0.00 0.00 90 1010.3
20260509053017 39 0.0 0.0 0.00 0.00 0.00 90 1010.2
20260509052517 39 0.0 0.0 0.00 0.00 0.00 90 1010.1
20260509052017 39 0.0 1.0 0.00 0.00 0.00 90 1010.0
20260509051518 40 0.0 0.0 0.00 0.00 0.00 90 1010.0
20260509051017 40 0.0 2.0 0.00 0.00 0.00 90 1009.9
20260509050517 39 0.0 1.0 0.00 0.00 0.00 89 1009.9
20260509050017 39 0.0 0.0 0.00 0.00 0.00 89 1009.8
20260509045517 39 0.0 0.0 0.00 0.00 0.00 88 1009.6
20260509045017 40 0.0 1.0 0.00 0.00 0.00 88 1009.6
20260509044517 40 0.0 1.0 0.00 0.00 0.00 89 1009.6
20260509044017 40 0.0 2.0 0.00 0.00 0.00 89 1009.5
20260509043517 40 0.0 1.0 0.00 0.00 0.00 88 1009.5
20260509043017 40 0.0 1.0 0.00 0.00 0.00 88 1009.4
20260509042517 40 0.0 0.0 0.00 0.00 0.00 88 1009.4
20260509042017 40 0.0 1.0 0.00 0.00 0.00 88 1009.3
20260509041517 40 0.0 0.0 0.00 0.00 0.00 88 1009.3
20260509041018 40 0.0 0.0 0.00 0.00 0.00 88 1009.2
20260509040517 40 0.0 0.0 0.00 0.00 0.00 87 1009.1
20260509040017 40 0.0 0.0 0.00 0.00 0.00 87 1009.1
20260509035517 41 0.0 0.0 0.00 0.00 0.00 87 1009.1
20260509035017 41 0.0 0.0 0.00 0.00 0.00 86 1009.0
20260509034518 41 0.0 0.0 0.00 0.00 0.00 86 1008.9
20260509034017 41 0.0 1.0 0.00 0.00 0.00 86 1008.9
20260509033517 42 0.0 0.0 0.00 0.00 0.00 86 1008.8
20260509033018 42 0.0 0.0 0.00 0.00 0.00 86 1008.9
20260509032517 42 0.0 0.0 0.00 0.00 0.00 85 1008.8
20260509032017 42 0.0 0.0 0.00 0.00 0.00 85 1008.7
20260509031517 42 0.0 1.0 0.00 0.00 0.00 86 1008.6
20260509031017 42 0.0 0.0 0.00 0.00 0.00 86 1008.6
20260509030517 42 0.0 0.0 0.00 0.00 0.00 86 1008.6
20260509030017 42 0.0 0.0 0.00 0.00 0.00 86 1008.5
20260509025516 42 0.0 0.0 0.00 0.00 0.00 85 1008.5
20260509025015 43 0.0 0.0 0.00 0.00 0.00 85 1008.5
20260509024516 43 0.0 0.0 0.00 0.00 0.00 85 1008.6
20260509024016 43 0.0 0.0 0.00 0.00 0.00 83 1008.5
20260509023515 43 0.0 0.0 0.00 0.00 0.00 82 1008.5
20260509023015 44 0.0 0.0 0.00 0.00 0.00 82 1008.5
20260509022516 44 0 1.0 1.0 0.00 0.00 0.00 83 1008.5
20260509022017 43 0 1.0 2.0 0.00 0.00 0.00 84 1008.5
20260509021516 43 0.0 2.0 0.00 0.00 0.00 86 1008.5
20260509021016 43 0.0 0.0 0.00 0.00 0.00 86 1008.3
20260509020517 43 0.0 0.0 0.00 0.00 0.00 86 1008.2
20260509020015 43 0.0 0.0 0.00 0.00 0.00 86 1008.3
20260509015516 43 0.0 0.0 0.00 0.00 0.00 86 1008.2
20260509015016 43 0.0 0.0 0.00 0.00 0.00 86 1008.1
20260509014515 43 0.0 0.0 0.00 0.00 0.00 86 1008.0
20260509014016 43 0.0 0.0 0.00 0.00 0.00 85 1007.9
20260509013516 43 0.0 0.0 0.00 0.00 0.00 84 1007.8
20260509013016 44 0.0 0.0 0.00 0.00 0.00 83 1007.7
20260509012515 44 0.0 0.0 0.00 0.00 0.00 83 1007.6
20260509012016 45 0.0 0.0 0.00 0.00 0.00 82 1007.6
20260509011516 45 0.0 0.0 0.00 0.00 0.00 81 1007.5
20260509011015 45 0.0 1.0 0.00 0.00 0.00 80 1007.4
20260509010516 46 0.0 1.0 0.00 0.00 0.00 79 1007.4
20260509010015 46 0.0 0.0 0.00 0.00 0.00 76 1007.2
20260509005516 47 0.0 1.0 0.00 0.00 0.00 76 1007.2
20260509005015 47 0.0 1.0 0.00 0.00 0.00 74 1007.1
20260509004516 47 0.0 2.0 0.00 0.00 0.00 73 1007.1
20260509004015 47 0.0 0.0 0.00 0.00 0.00 74 1007.0
20260509003515 48 0.0 0.0 0.00 0.00 0.00 73 1006.8
20260509003015 47 0.0 0.0 0.00 0.00 0.00 73 1006.7
20260509002515 47 0.0 0.0 0.00 0.00 0.00 75 1006.6
20260509002015 48 0.0 1.0 0.00 0.00 0.00 75 1006.5
20260509001516 49 0.0 0.0 0.00 0.00 0.00 74 1006.3
20260509001016 50 0.0 0.0 0.00 0.00 0.00 71 1006.2
20260509000515 50 0.0 0.0 0.00 0.00 0.00 65 1006.0
20260509000015 50 0.0 0.0 0.00 0.00 0.00 65 1005.9
20260508235515 51 0.0 0.0 0.00 0.00 0.00 65 1005.8
20260508235016 51 0.0 1.0 0.00 0.00 0.00 60 1005.7
20260508234517 52 0.0 1.0 0.00 0.00 0.00 60 1005.6
20260508234016 52 0.0 1.0 0.00 0.00 0.00 59 1005.5
20260508233515 53 0.0 2.0 0.00 0.00 0.00 59 1005.3
20260508233016 53 338 1.0 2.0 0.00 0.00 0.00 57 1005.3
20260508232516 53 315 1.0 3.0 0.00 0.00 0.00 56 1005.2
20260508232015 54 315 1.0 4.0 0.00 0.00 0.00 56 1005.0
20260508231516 54 315 2.0 5.0 0.00 0.00 0.00 53 1004.9
20260508231016 54 315 2.0 7.0 0.00 0.00 0.00 52 1004.8
20260508230515 55 315 2.0 5.0 0.00 0.00 0.00 51 1004.6
20260508230016 55 315 3.0 5.0 0.00 0.00 0.00 50 1004.5
20260508225515 56 315 3.0 7.0 0.00 0.00 0.00 50 1004.4
20260508225016 56 338 2.0 6.0 0.00 0.00 0.00 50 1004.3
20260508224515 56 338 2.0 5.0 0.00 0.00 0.00 49 1004.2
20260508224015 56 338 4.0 7.0 0.00 0.00 0.00 48 1004.1
20260508223515 57 338 4.0 9.0 0.00 0.00 0.00 47 1004.0
20260508223015 57 315 4.0 8.0 0.00 0.00 0.00 47 1003.9
20260508222516 57 338 4.0 9.0 0.00 0.00 0.00 47 1003.9
20260508222015 57 315 3.0 6.0 0.00 0.00 0.00 46 1003.8
20260508221516 57 338 5.0 12.0 0.00 0.00 0.00 45 1003.7
20260508221015 57 315 4.0 9.0 0.00 0.00 0.00 45 1003.5
20260508220516 57 338 5.0 8.0 0.00 0.00 0.00 45 1003.4
20260508220016 58 315 4.0 9.0 0.00 0.00 0.00 43 1003.4
20260508215515 58 315 5.0 13.0 0.00 0.00 0.00 43 1003.3
20260508215015 58 315 5.0 9.0 0.00 0.00 0.00 44 1003.3
20260508214516 59 315 4.0 7.0 0.00 0.00 0.00 42 1003.1
20260508214016 58 315 4.0 10.0 0.00 0.00 0.00 41 1003.1
20260508213516 59 315 4.0 7.0 0.00 0.00 0.00 40 1003.1
20260508213016 58 315 5.0 10.0 0.00 0.00 0.00 40 1003.0
20260508212515 58 338 7.0 12.0 0.00 0.00 0.00 40 1002.9
20260508212015 58 338 5.0 8.0 0.00 0.00 0.00 41 1002.8
20260508211515 59 315 6.0 11.0 0.00 0.00 0.00 40 1002.8
20260508211015 59 315 3.0 9.0 0.00 0.00 0.00 40 1002.7
20260508210517 59 315 5.0 11.0 0.00 0.00 0.00 39 1002.7
20260508210016 59 315 6.0 11.0 0.00 0.00 0.00 38 1002.5
20260508205515 59 315 4.0 7.0 0.00 0.00 0.00 40 1002.5
20260508205016 59 315 4.0 9.0 0.00 0.00 0.00 37 1002.5
20260508204516 59 315 4.0 8.0 0.00 0.00 0.00 40 1002.4
20260508204016 59 315 3.0 6.0 0.00 0.00 0.00 38 1002.3
20260508203516 59 315 5.0 9.0 0.00 0.00 0.00 38 1002.3
20260508203016 59 315 3.0 6.0 0.00 0.00 0.00 39 1002.3
20260508202516 58 315 5.0 9.0 0.00 0.00 0.00 40 1002.3
20260508202017 58 338 5.0 11.0 0.00 0.00 0.00 42 1002.1
20260508201515 58 315 4.0 8.0 0.00 0.00 0.00 44 1002.2
20260508201016 57 315 4.0 8.0 0.00 0.00 0.00 46 1002.1
20260508200515 57 315 5.0 8.0 0.00 0.00 0.00 45 1002.1
20260508200017 57 315 4.0 10.0 0.00 0.00 0.00 47 1002.0
20260508195516 57 315 6.0 11.0 0.00 0.00 0.00 47 1002.1
20260508195015 58 315 5.0 13.0 0.00 0.00 0.00 47 1002.0
20260508194515 58 315 5.0 10.0 0.00 0.00 0.00 47 1001.9
20260508194015 58 315 4.0 9.0 0.00 0.00 0.00 47 1001.8
20260508193515 58 315 4.0 8.0 0.00 0.00 0.00 47 1001.8
20260508193015 59 293 4.0 10.0 0.00 0.00 0.00 47 1001.8
20260508192515 58 315 5.0 11.0 0.00 0.00 0.00 45 1001.7
20260508192016 59 315 6.0 14.0 0.00 0.00 0.00 46 1001.7
20260508191516 59 315 6.0 11.0 0.00 0.00 0.00 48 1001.7
20260508191015 59 315 4.0 8.0 0.00 0.00 0.00 49 1001.6
20260508190516 58 315 4.0 8.0 0.00 0.00 0.00 51 1001.6
20260508190015 58 315 4.0 10.0 0.00 0.00 0.00 52 1001.6
20260508185516 58 315 5.0 11.0 0.00 0.00 0.00 53 1001.5
20260508185016 58 315 6.0 11.0 0.00 0.00 0.00 51 1001.5
20260508184516 59 315 5.0 9.0 0.00 0.00 0.00 53 1001.5
20260508184016 58 315 5.0 10.0 0.00 0.00 0.00 53 1001.4
20260508183516 58 338 5.0 12.0 0.00 0.00 0.00 58 1001.4
20260508183015 58 315 4.0 9.0 0.00 0.00 0.00 56 1001.4
20260508182515 58 0 5.0 10.0 0.00 0.00 0.00 57 1001.5
20260508182015 58 338 4.0 10.0 0.00 0.01 0.00 57 1001.5
20260508181516 58 315 3.0 7.0 0.00 0.01 0.00 58 1001.5
20260508181016 58 315 4.0 9.0 0.00 0.01 0.00 59 1001.6
20260508180515 58 315 5.0 10.0 0.00 0.01 0.00 58 1001.5
20260508180016 58 315 4.0 10.0 0.00 0.01 0.00 60 1001.6
20260508175515 57 315 5.0 8.0 0.00 0.01 0.00 60 1001.6
20260508175016 57 23 7.0 9.0 0.00 0.02 0.00 64 1001.5
20260508174515 57 338 6.0 10.0 0.00 0.02 0.00 63 1001.7
20260508174015 57 315 5.0 8.0 0.00 0.02 0.00 64 1001.7
20260508173516 56 315 5.0 9.0 0.00 0.02 0.00 63 1001.7
20260508173016 57 315 6.0 12.0 0.00 0.03 0.00 61 1001.7
20260508172515 57 315 5.0 10.0 0.00 0.05 0.00 62 1001.7
20260508172015 57 315 5.0 10.0 0.00 0.05 0.00 63 1001.7
20260508171516 57 315 6.0 12.0 0.00 0.05 0.00 64 1001.7
20260508171015 57 315 6.0 12.0 0.00 0.05 0.00 64 1001.8
20260508170516 57 315 5.0 9.0 0.00 0.05 0.00 64 1001.8
20260508170016 56 315 3.0 7.0 0.00 0.06 0.00 63 1001.7
20260508165515 56 315 4.0 7.0 0.00 0.07 0.00 65 1001.7
20260508165015 56 315 3.0 6.0 0.00 0.08 0.00 65 1001.8
20260508164516 56 315 4.0 9.0 0.00 0.08 0.00 63 1001.7
20260508164015 57 315 3.0 8.0 0.00 0.08 0.00 64 1001.8
20260508163517 57 315 4.0 8.0 0.00 0.09 0.00 63 1001.8
20260508163015 57 315 5.0 9.0 0.00 0.09 0.00 61 1001.8
20260508162517 58 135 1.0 7.0 0.00 0.09 0.00 67 1001.6
20260508162015 58 225 1.0 3.0 0.00 0.10 0.00 67 1001.6
20260508161515 58 135 2.0 4.0 0.00 0.12 0.00 68 1001.6
20260508161016 58 225 1.0 4.0 0.00 0.17 0.00 69 1001.7
20260508160515 58 225 1.0 3.0 0.00 0.22 0.00 68 1001.8
20260508160015 57 0.0 2.0 0.00 0.29 0.00 73 1001.8
20260508155515 57 135 1.0 2.0 0.00 0.37 0.00 74 1001.9
20260508155015 57 225 2.0 6.0 0.00 0.39 0.00 73 1002.0
20260508154515 57 203 1.0 4.0 0.00 0.43 0.00 74 1002.1
20260508154016 56 135 2.0 4.0 0.00 0.46 0.00 77 1002.1
20260508153515 56 135 2.0 5.0 0.00 0.50 0.00 75 1002.1
20260508153015 56 135 1.0 4.0 0.00 0.51 0.00 76 1002.1
20260508152516 56 135 2.0 7.0 0.00 0.52 0.00 75 1002.1
20260508152015 56 135 1.0 4.0 0.00 0.53 0.00 75 1002.2
20260508151516 56 225 1.0 4.0 0.00 0.54 0.00 74 1002.2
20260508151015 57 135 2.0 9.0 0.00 0.54 0.00 73 1002.1
20260508150515 58 225 1.0 3.0 0.00 0.54 0.00 73 1002.2
20260508150016 58 180 2.0 5.0 0.00 0.55 0.00 72 1002.2
20260508145515 59 135 2.0 5.0 0.00 0.56 0.00 71 1002.1
20260508145015 59 225 2.0 5.0 0.00 0.57 0.00 72 1002.0
20260508144515 58 135 2.0 6.0 0.00 0.57 0.00 72 1002.1
20260508144015 57 135 2.0 5.0 0.00 0.57 0.00 76 1002.1
20260508143515 57 135 2.0 6.0 0.00 0.57 0.00 75 1002.2
20260508143016 56 135 2.0 6.0 0.00 0.57 0.00 76 1002.3
20260508142515 57 135 4.0 8.0 0.00 0.57 0.00 74 1002.3
20260508142015 58 113 2.0 8.0 0.00 0.57 0.00 75 1002.4
20260508141515 57 158 1.0 6.0 0.00 0.57 0.00 77 1002.4
20260508141015 58 158 2.0 5.0 0.00 0.57 0.00 75 1002.4
20260508140516 58 225 2.0 5.0 0.00 0.58 0.00 74 1002.4
20260508140016 58 225 1.0 3.0 0.00 0.58 0.00 72 1002.4
20260508135516 58 315 1.0 2.0 0.00 0.59 0.00 71 1002.4
20260508135015 58 135 1.0 2.0 0.00 0.59 0.00 74 1002.4
20260508134515 57 0.0 2.0 0.00 0.59 0.00 75 1002.4
20260508134015 56 338 1.0 2.0 0.00 0.59 0.00 74 1002.4
20260508133515 56 0.0 1.0 0.00 0.59 0.00 76 1002.5
20260508133017 55 0.0 1.0 0.00 0.59 0.00 78 1002.4
20260508132515 55 0.0 1.0 0.00 0.59 0.00 77 1002.5
20260508132016 55 23 1.0 3.0 0.00 0.59 0.00 77 1002.4
20260508131515 55 0.0 1.0 0.00 0.59 0.00 79 1002.5
20260508131015 54 293 1.0 2.0 0.00 0.59 0.00 78 1002.5
20260508130516 54 315 1.0 2.0 0.00 0.60 0.00 79 1002.6
20260508130016 54 0.0 2.0 0.00 0.60 0.00 80 1002.5
20260508125515 53 0.0 1.0 0.00 0.60 0.00 81 1002.6
20260508125015 52 315 1.0 2.0 0.00 0.60 0.00 82 1002.7
20260508124516 52 293 1.0 2.0 0.00 0.60 0.00 82 1002.7
20260508124015 52 293 1.0 3.0 0.00 0.60 0.00 83 1002.7
20260508123515 52 293 2.0 3.0 0.00 0.60 0.00 83 1002.7
20260508123016 51 293 1.0 3.0 0.00 0.61 0.00 84 1002.6
20260508122515 51 293 2.0 5.0 0.00 0.61 0.00 84 1002.6
20260508122015 51 315 2.0 4.0 0.00 0.61 0.00 85 1002.5
20260508121516 51 338 1.0 5.0 0.00 0.61 0.00 86 1002.5
20260508121016 50 23 2.0 4.0 0.00 0.61 0.00 86 1002.5
20260508120517 50 338 2.0 4.0 0.00 0.61 0.00 88 1002.4
20260508120016 49 338 2.0 4.0 0.00 0.61 0.00 88 1002.4
20260508115515 49 0 3.0 5.0 0.00 0.61 0.00 89 1002.4
20260508115016 49 0 2.0 4.0 0.00 0.62 0.00 90 1002.4
20260508114516 49 0 3.0 6.0 0.00 0.63 0.00 91 1002.5
20260508114015 48 23 1.0 3.0 0.00 0.63 0.00 92 1002.5
20260508113515 48 23 1.0 2.0 0.00 0.64 0.00 93 1002.5
20260508113016 48 0 2.0 4.0 0.00 0.65 0.00 94 1002.4
20260508112515 47 0 2.0 5.0 0.00 0.65 0.00 94 1002.5
20260508112015 47 0 3.0 6.0 0.00 0.65 0.00 94 1002.5
20260508111516 46 0 2.0 5.0 0.00 0.67 0.00 94 1002.5
20260508111016 46 0 2.0 3.0 0.00 0.68 0.00 94 1002.5
20260508110515 45 0 3.0 5.0 0.00 0.69 0.00 94 1002.5
20260508110016 45 338 3.0 5.0 0.00 0.70 0.00 94 1002.5
20260508105515 45 0 2.0 5.0 0.00 0.72 0.00 94 1002.4
20260508105015 44 0 2.0 4.0 0.00 0.72 0.00 94 1002.4
20260508104515 44 0 3.0 4.0 0.00 0.72 0.00 94 1002.4
20260508104015 44 0 2.0 3.0 0.00 0.73 0.00 94 1002.3
20260508103515 43 0 1.0 3.0 0.00 0.73 0.00 94 1002.3
20260508103015 43 0.0 2.0 0.00 0.73 0.00 94 1002.4
20260508102516 43 0 1.0 2.0 0.00 0.74 0.00 94 1002.3
20260508102016 43 0 1.0 3.0 0.00 0.74 0.00 94 1002.2
20260508101515 42 0 1.0 3.0 0.00 0.74 0.00 94 1002.2
20260508101015 42 0 1.0 2.0 0.00 0.74 0.00 94 1002.3
20260508100516 42 338 1.0 2.0 0.00 0.74 0.00 94 1002.2
20260508100016 41 0.0 0.0 0.00 0.74 0.00 94 1002.3
20260508095515 40 0.0 0.0 0.00 0.74 0.00 94 1002.3
20260508095015 40 0.0 0.0 0.00 0.74 0.00 94 1002.2
20260508094515 40 0.0 0.0 0.00 0.75 0.00 94 1002.2
20260508094016 40 0.0 0.0 0.00 0.76 0.00 94 1002.1
20260508093515 40 0.0 0.0 0.00 0.78 0.00 94 1002.1
20260508093016 40 0.0 0.0 0.00 0.79 0.00 94 1002.2
20260508092515 40 0.0 0.0 0.00 0.80 0.00 94 1002.2
20260508092015 41 0.0 0.0 0.00 0.80 0.00 94 1002.2
20260508091515 41 0.0 0.0 0.00 0.80 0.00 94 1002.3
20260508091016 41 0.0 0.0 0.00 0.81 0.00 94 1002.2
20260508090515 41 0.0 0.0 0.00 0.81 0.00 94 1002.2
20260508090015 41 0.0 0.0 0.00 0.81 0.00 94 1002.2
20260508085515 41 0.0 0.0 0.00 0.82 0.00 94 1002.2
20260508085016 41 0.0 0.0 0.00 0.82 0.00 94 1002.1
20260508084515 40 0.0 0.0 0.00 0.82 0.00 94 1002.0
20260508084015 40 0.0 0.0 0.00 0.82 0.00 94 1001.9
20260508083516 40 0.0 0.0 0.00 0.82 0.00 94 1001.9
20260508083016 40 0.0 0.0 0.00 0.82 0.00 94 1002.0
20260508082515 40 0.0 0.0 0.00 0.82 0.00 94 1002.1
20260508082015 40 0.0 0.0 0.00 0.82 0.00 94 1002.1
20260508081515 40 0.0 0.0 0.00 0.82 0.00 94 1002.1
20260508081016 41 0.0 0.0 0.00 0.82 0.00 94 1001.9
20260508080515 40 0.0 0.0 0.00 0.82 0.00 94 1002.0
20260508080015 40 0.0 0.0 0.00 0.82 0.00 94 1002.0
20260508075517 40 0.0 0.0 0.00 0.82 0.00 94 1002.1
20260508075016 40 0.0 0.0 0.00 0.82 0.00 94 1002.1
20260508074515 40 0.0 0.0 0.00 0.82 0.00 94 1002.1
20260508074015 40 0.0 0.0 0.00 0.82 0.00 94 1002.2
20260508073515 40 0.0 0.0 0.00 0.82 0.00 94 1002.1
20260508073015 40 0.0 0.0 0.00 0.82 0.00 94 1001.8